User: anonymous   Login
Location: Unspecified
(0.0000°N, 0.0000°E)
Time: 16:44:05
(UTC+00:00)
Language:

OPTUS 1C - Orbit

View from above orbital plane
View from above orbital plane
View from above satellite
View from above satellite

Ground track
Ground track

The orbit data is extracted from the following two-line orbital elements,

1 27831U 03028B   17205.96018439 -.00000172 +00000-0 +00000-0 0  9990
2 27831 000.0613 229.2047 0003800 265.6968 309.6118 01.00272602051747
Epoch (UTC): 24 July 2017 23:02:39
Eccentricity: 0.0003800
inclination: 0.0613°
perigee height: 35770 km
apogee height: 35802 km
right ascension of ascending node: 229.2047°
argument of perigee: 265.6968°
revolutions per day: 1.00272602
mean anomaly at epoch: 309.6118°
orbit number at epoch: 5174

The dashed part of the orbit path shows where the satellite is in the earth's shadow,  

DLR